Location: Bjelajci
(45.0103°N, 16.1758°E)
Time: 04:27:14
(UTC+00:00)

COSMOS 2406 - Pass Details

Date: 14 July 2020
Orbit: 844 x 863 km, 71.0° (Epoch: 11 August)

Event Time Altitude Azimuth Distance (km) Brightness Sun altitude
Exits shadow 00:49:37 34° 211° (SSW) 1,389 3.8 -18.9°
Maximum altitude 00:52:16 82° 295° (WNW) 877 3.2 -18.7°
Drops below altitude 10° 00:58:03 10° 24° (NNE) 2,509 6.9 -18.2°
Sets 01:00:32 0° 26° (NNE) 3,448 8.1 -18.0°
